DW4028 Weather Reports


Display with metric or nautical units.
time (UTC)temp
F
wind
direction
speed
MPH
gust
MPH
rain 1hr
in
rain 24hr
in
rain mn
in
humidity
%
barometer
mb
20260507131510 51 205 2.0 7.0 0.00 0.25 0.19 90 1008.6
20260507130026 50 86 0.0 4.0 0.00 0.25 0.19 92 1008.3
20260507124511 50 227 0.0 3.0 0.00 0.25 0.19 93 1008.5
20260507123010 50 284 1.0 3.0 0.00 0.25 0.19 93 1008.6
20260507121511 49 267 1.0 3.0 0.01 0.25 0.19 93 1008.8
20260507120008 49 151 0.0 2.0 0.03 0.25 0.19 93 1008.7
20260507114522 49 153 0.0 1.0 0.04 0.25 0.19 93 1008.2
20260507113014 48 153 0.0 2.0 0.05 0.25 0.19 92 1008.2
20260507111513 48 22 0.0 1.0 0.04 0.24 0.18 92 1008.7
20260507110015 48 219 0.0 2.0 0.02 0.22 0.16 92 1008.2
20260507104505 48 22 0.0 2.0 0.02 0.21 0.15 92 1007.9
20260507103005 48 33 0.0 2.0 0.02 0.20 0.14 92 1007.7
20260507101507 48 16 0.0 2.0 0.02 0.20 0.14 92 1008.0
20260507100007 48 266 0.0 1.0 0.02 0.20 0.14 92 1008.2
20260507094503 49 267 0.0 2.0 0.02 0.19 0.13 92 1007.7
20260507093006 49 20 0.0 2.0 0.02 0.18 0.12 92 1007.8
20260507091513 49 266 0.0 2.0 0.03 0.18 0.12 91 1007.4
20260507090005 49 224 0.0 2.0 0.05 0.18 0.12 91 1007.7
20260507084509 50 360 0.0 2.0 0.08 0.17 0.11 91 1007.2
20260507083008 50 18 0.0 2.0 0.09 0.16 0.10 91 1007.3
20260507081504 50 265 0.0 5.0 0.09 0.15 0.09 90 1007.3
20260507080012 51 32 1.0 7.0 0.07 0.13 0.07 89 1007.7
20260507074513 52 202 1.0 6.0 0.03 0.09 0.03 88 1007.5
20260507073010 54 281 1.0 5.0 0.01 0.07 0.01 89 1006.9
20260507071523 55 236 0.0 3.0 0.00 0.06 0.00 90 1005.9
20260507070009 55 360 1.0 3.0 0.00 0.06 0.00 91 1006.1
20260507064512 56 233 0.0 2.0 0.00 0.06 0.00 92 1006.1
20260507063019 56 139 0.0 2.0 0.00 0.06 0.00 92 1006.2
20260507061508 56 139 0.0 0.0 0.00 0.06 0.00 92 1006.2
20260507060016 56 139 0.0 0.0 0.00 0.06 0.00 92 1006.3
20260507054522 56 138 0.0 2.0 0.00 0.06 0.00 92 1006.6
20260507053012 56 146 0.0 2.0 0.00 0.06 0.00 92 1006.8
20260507051520 56 156 1.0 4.0 0.00 0.06 0.00 92 1007.0
20260507050036 56 171 1.0 2.0 0.00 0.06 0.00 92 1007.0
20260507044516 56 215 1.0 5.0 0.00 0.06 0.00 92 1007.1
20260507043022 56 213 1.0 6.0 0.00 0.06 0.00 92 1007.1
20260507041521 56 183 1.0 4.0 0.00 0.06 0.00 92 1006.7
20260507040019 56 161 1.0 5.0 0.00 0.06 0.00 92 1006.8
20260507034524 56 134 2.0 9.0 0.00 0.06 0.06 92 1006.7
20260507033014 56 163 2.0 7.0 0.00 0.06 0.06 92 1007.1
20260507031522 56 188 2.0 8.0 0.00 0.06 0.06 92 1007.0
20260507030029 56 167 2.0 10.0 0.00 0.06 0.06 92 1006.9
20260507024524 56 188 2.0 8.0 0.00 0.06 0.06 92 1006.9
20260507023026 56 183 3.0 8.0 0.00 0.06 0.06 92 1007.1
20260507021512 56 196 4.0 9.0 0.00 0.06 0.06 92 1006.7
20260507020020 56 170 3.0 8.0 0.00 0.06 0.06 92 1007.0
20260507014515 56 171 1.0 11.0 0.00 0.06 0.06 92 1007.0
20260507013015 56 190 3.0 7.0 0.00 0.06 0.06 92 1007.2
20260507011513 56 179 4.0 10.0 0.00 0.06 0.06 92 1007.3
20260507010020 56 160 4.0 9.0 0.00 0.06 0.06 92 1007.5
20260507004518 56 175 3.0 10.0 0.00 0.06 0.06 92 1007.5
20260507003015 56 194 3.0 13.0 0.00 0.06 0.06 92 1007.4
20260507001518 56 169 3.0 10.0 0.00 0.06 0.06 92 1007.4
20260507000004 55 181 2.0 8.0 0.00 0.06 0.06 91 1007.5
20260506234511 55 169 4.0 10.0 0.00 0.06 0.06 91 1007.4
20260506233023 55 130 4.0 13.0 0.00 0.06 0.06 91 1007.3
20260506231504 55 136 6.0 12.0 0.01 0.06 0.06 91 1007.4
20260506230022 55 127 2.0 15.0 0.01 0.06 0.06 91 1007.5
20260506224521 55 160 5.0 14.0 0.01 0.06 0.06 90 1007.3
20260506223004 56 128 3.0 14.0 0.03 0.06 0.06 90 1007.3
20260506221519 56 201 3.0 13.0 0.02 0.05 0.05 90 1007.4
20260506220006 56 175 3.0 14.0 0.02 0.05 0.05 90 1007.9
20260506214504 56 193 4.0 12.0 0.02 0.05 0.05 89 1007.7
20260506213007 57 165 4.0 16.0 0.00 0.03 0.03 88 1007.8
20260506211503 57 163 5.0 19.0 0.01 0.03 0.03 88 1007.8
20260506210007 57 161 5.0 14.0 0.01 0.03 0.03 88 1008.0
20260506204506 58 208 2.0 11.0 0.01 0.03 0.03 88 1008.3
20260506203009 58 172 5.0 13.0 0.03 0.03 0.03 88 1008.4
20260506201525 58 144 4.0 17.0 0.02 0.02 0.02 88 1008.5
20260506200026 59 206 3.0 12.0 0.02 0.02 0.02 87 1008.6
20260506194512 59 233 4.0 19.0 0.02 0.02 0.02 86 1008.8
20260506193023 61 184 5.0 13.0 0.00 0.00 0.00 81 1008.8
20260506191508 63 209 4.0 14.0 0.00 0.00 0.00 76 1008.9
20260506190025 63 52 6.0 16.0 0.00 0.00 0.00 73 1008.8
20260506184520 64 46 4.0 12.0 0.00 0.00 0.00 73 1008.9
20260506183012 65 37 10.0 18.0 0.00 0.00 0.00 71 1008.9
20260506181519 65 53 1.0 18.0 0.00 0.00 0.00 70 1009.1
20260506180024 66 38 7.0 20.0 0.00 0.00 0.00 69 1009.2
20260506174523 66 32 7.0 19.0 0.00 0.00 0.00 68 1009.4
20260506173024 67 101 9.0 19.0 0.00 0.00 0.00 67 1009.7
20260506171515 67 203 6.0 18.0 0.00 0.00 0.00 68 1009.7
20260506170020 68 209 8.0 18.0 0.00 0.00 0.00 65 1009.6
20260506164525 67 197 9.0 21.0 0.00 0.00 0.00 67 1010.1
20260506163014 66 242 7.0 23.0 0.00 0.00 0.00 69 1010.1
20260506161521 67 171 5.0 16.0 0.00 0.00 0.00 68 1010.1
20260506160028 67 250 5.0 14.0 0.00 0.00 0.00 67 1010.4
20260506154521 67 206 4.0 13.0 0.00 0.00 0.00 69 1010.6
20260506153024 67 208 5.0 18.0 0.00 0.00 0.00 68 1010.8
20260506151530 67 211 8.0 14.0 0.00 0.00 0.00 67 1010.8
20260506150004 66 82 5.0 19.0 0.00 0.00 0.00 70 1011.0
20260506144508 65 91 7.0 16.0 0.00 0.00 0.00 71 1010.9
20260506143009 64 158 4.0 12.0 0.00 0.00 0.00 72 1011.0
20260506141504 65 146 5.0 21.0 0.00 0.00 0.00 71 1011.0
20260506140018 65 165 3.0 13.0 0.00 0.00 0.00 71 1010.7
20260506134514 65 259 8.0 19.0 0.00 0.00 0.00 71 1010.9
20260506133007 64 250 5.0 17.0 0.00 0.00 0.00 73 1011.4